{"data":{"norad_id":47834,"intl_designator":"2021-018AZ","name":"STARLINK-2424","alt_names":[],"object_type":"PAYLOAD","status":"ACTIVE","operator":null,"country":"US","launch_date":"2021-03-11","launch_site_code":"AFETR","launch_vehicle":null,"mission":null,"orbit_class":"UNKNOWN","rcs_meters":null,"size_class":null,"mass_kg":null,"dimensions":null,"purposes":["comms"],"wikipedia_slug":null,"has_3d_model":false,"image_url":null,"decayed_at":null,"tle_current":{"epoch":"2026-09-20T00:12:43.113312Z","epoch_age_seconds":71668,"freshness":"FRESH","line1":"1 47834U 21018AZ  26263.00883233  .00001275  00000+0  52817-4 0  9995","line2":"2 47834  53.1594  60.7227 0001160  97.9436 262.1697 15.31713652306528","mean_motion":15.31713652,"eccentricity":0.000116,"inclination_deg":53.1594,"raan_deg":60.7227,"arg_perigee_deg":97.9436,"mean_anomaly_deg":262.1697,"bstar":5.2817e-5,"rev_number":30652,"period_min":94.012350031597,"perigee_km":469.90483461555,"apogee_km":471.49376463706,"semimajor_km":6848.8362996263,"source":"CELESTRAK","updated_at":"2026-09-20T09:00:38.752291Z"}}}